Tracking 19969 objects as of 12-Nov-2019
Live streaming from Space Station
objects crossing your sky now
Track the group of recently launched Starlink satellites

NOAA 16 DEB

Track NOAA 16 DEB now!
10-day predictions


NORAD ID: 41136
Int'l Code: 2000-055BT
Perigee: 779.8 km
Apogee: 842.4 km
Inclination: 99.1 °
Period: 101.0 minutes
Semi major axis: 7182 km
RCS: Unknown
Launch date: September 21, 2000
Source: United States (US)
Launch site: AIR FORCE WESTERN TEST RANGE (AFWTR)

Note: This is SATELLITE DEBRIS
aabbcc
Your satellite tracking list
Your tracking list is empty




NASA's NSSDC Master Catalog

Two Line Element Set (TLE):
1 41136U 00055BT  19314.60914506 +.00002101 +00000-0 +88571-3 0  9990
2 41136 099.0981 089.9956 0043585 270.6098 089.0087 14.26346522204829
Source of the keplerian elements: AFSPC